FW4110 Weather Reports


Display with metric or nautical units.
time (UTC)temp
F
wind
direction
speed
MPH
gust
MPH
rain 1hr
in
rain 24hr
in
rain mn
in
humidity
%
barometer
mb
20260504081530 66 270 1.0 4.0 0.00 0.00 0.00 74 1009.6
20260504044602 67 244 1.0 11.0 0.00 0.00 0.00 73 1010.8
20260504043054 67 308 3.0 11.0 0.00 0.00 0.00 72 1011.1
20260504041547 67 134 2.0 8.0 0.00 0.00 0.00 72 1011.2
20260504040103 68 148 2.0 8.0 0.00 0.00 0.00 71 1011.3
20260504034606 68 89 0.0 9.0 0.00 0.00 0.00 71 1011.2
20260504033039 68 169 3.0 7.0 0.00 0.00 0.00 71 1012.1
20260504031537 68 198 2.0 7.0 0.00 0.00 0.00 70 1012.3
20260504030039 68 196 2.0 7.0 0.00 0.00 0.00 70 1012.0
20260504024533 68 178 2.0 6.0 0.00 0.00 0.00 70 1011.8
20260504023031 68 155 0.0 5.0 0.00 0.00 0.00 70 1011.6
20260504021529 69 168 1.0 5.0 0.00 0.00 0.00 69 1011.6
20260504020029 69 153 1.0 4.0 0.00 0.00 0.00 68 1011.4
20260504014525 70 175 0.0 4.0 0.00 0.00 0.00 67 1011.4
20260504013030 71 297 0.0 4.0 0.00 0.00 0.00 66 1011.2
20260504011523 71 189 1.0 6.0 0.00 0.00 0.00 65 1011.3
20260504010021 72 235 1.0 3.0 0.00 0.00 0.00 64 1011.1
20260504004518 73 245 1.0 4.0 0.00 0.00 0.00 63 1011.1
20260504003016 75 154 0.0 6.0 0.00 0.00 0.00 61 1011.0
20260504001516 76 204 2.0 6.0 0.00 0.00 0.00 59 1011.0
20260504000010 77 273 2.0 6.0 0.00 0.00 0.00 58 1011.1
20260503234510 77 223 3.0 8.0 0.00 0.00 0.00 58 1011.2
20260503233005 77 287 1.0 9.0 0.00 0.00 0.00 57 1011.3
20260503231504 77 260 4.0 11.0 0.00 0.00 0.00 56 1011.5
20260503224556 78 239 3.0 12.0 0.00 0.00 0.00 54 1011.9
20260503223052 78 277 3.0 14.0 0.00 0.00 0.00 54 1012.0
20260503221553 79 229 3.0 12.0 0.00 0.00 0.00 52 1012.0
20260503220049 79 234 4.0 13.0 0.00 0.00 0.00 51 1012.1
20260503214551 79 242 2.0 15.0 0.00 0.00 0.00 52 1012.1
20260503213045 78 220 4.0 12.0 0.00 0.00 0.00 51 1012.2
20260503211540 78 246 7.0 19.0 0.00 0.00 0.00 50 1012.2
20260503210035 77 218 5.0 16.0 0.00 0.00 0.00 50 1012.6
20260503204533 77 320 6.0 17.0 0.00 0.00 0.00 50 1012.7
20260503203026 77 310 6.0 17.0 0.00 0.00 0.00 50 1012.8
20260503201522 77 163 4.0 15.0 0.00 0.00 0.00 51 1013.3
20260503200018 76 287 6.0 17.0 0.00 0.00 0.00 51 1013.7
20260503194515 76 309 5.0 20.0 0.00 0.00 0.00 52 1014.2
20260503193011 75 174 4.0 11.0 0.00 0.00 0.00 52 1014.6
20260503191505 74 263 7.0 16.0 0.00 0.00 0.00 54 1015.1
20260503190001 74 247 4.0 14.0 0.00 0.00 0.00 53 1015.5
20260503184556 73 283 4.0 15.0 0.00 0.00 0.00 53 1016.1
20260503183059 72 161 7.0 16.0 0.00 0.00 0.00 55 1016.3
20260503181545 71 265 5.0 11.0 0.00 0.00 0.00 56 1016.7
20260503180052 71 264 4.0 14.0 0.00 0.00 0.00 55 1017.1
20260503174535 70 309 2.0 12.0 0.00 0.00 0.00 56 1017.6
20260503173031 69 204 6.0 15.0 0.00 0.00 0.00 56 1018.4
20260503171535 68 335 4.0 15.0 0.00 0.00 0.00 57 1018.6